Home   Weather   Inuvik   Past weeks
Flag for Canada

Past Weather in Inuvik, Northwest Territories, Canada — Yesterday and Last 2 Weeks

Now
64 °F

Passing clouds.


Feels Like: 64 °F
Forecast: 61 / 43 °F
Wind: 10 mph from Northeast

Location: Inuvik

Current Time: Jun 18, 2019 at 9:21:48 pm

Latest Report: Jun 18, 2019 at 8:00 pm


Visibility: 15 mi

Pressure: 30.01 "Hg

Humidity: 30%

Dew Point: 32 °F

Location of InuvikLocation

Past Weather in Inuvik — Graph

°F

Inuvik Temperature Yesterday

Maximum temperature yesterday: 54 °F (at 12:00 am)
Minimum temperature yesterday: 41 °F (at 10:00 am)
Average temperature yesterday: 48 °F

High & Low Weather Summary for the Past Weeks

 TemperatureHumidityPressure
High70 °F (Jun 8, 5:00 pm)100% (Jun 14, 6:34 am)30.19 "Hg (Jun 14, 6:34 am)
Low34 °F (Jun 15, 6:00 am)21% (Jun 8, 6:00 pm)29.60 "Hg (Jun 12, 8:08 am)
Average50 °F59%30.00 "Hg
* Reported Jun 3 8:00 pm — Jun 18 8:00 pm, Inuvik. Weather by CustomWeather, © 2019

Note: Actual official high and low records may vary slightly from our data, if they occured in-between our weather recording intervals... More about our weather records

Advertising

Inuvik Weather History for the Previous 24 Hours

Scroll right to see more
 ConditionsComfort  
Time TempWeatherWind HumidityBarometerVisibility
8:00 pm
Tue, Jun 18
64 °FPassing clouds.10 mph30%30.01 "Hg15 mi
7:00 pm66 °FPassing clouds.6 mph32%30.01 "Hg15 mi
6:00 pm64 °FPassing clouds.8 mph34%30.01 "Hg15 mi
5:00 pm64 °FPassing clouds.5 mph37%30.02 "Hg15 mi
4:00 pm61 °FPassing clouds.7 mph39%30.02 "Hg15 mi
3:00 pm61 °FPassing clouds.6 mph34%30.03 "Hg15 mi
2:00 pm59 °FPassing clouds.3 mph39%30.03 "Hg15 mi
1:00 pm57 °FPassing clouds.7 mph41%30.04 "Hg15 mi
12:00 pm54 °FPassing clouds.No wind47%30.05 "Hg15 mi
11:00 am52 °FPassing clouds.No wind50%30.05 "Hg15 mi
10:00 am50 °FPassing clouds.2 mph58%30.05 "Hg15 mi
9:00 am46 °FPassing clouds.3 mph62%30.06 "Hg15 mi
8:00 am45 °FPassing clouds.5 mph66%30.06 "Hg15 mi
7:00 am41 °FPassing clouds.7 mph76%30.06 "Hg15 mi
6:00 am39 °FPassing clouds.5 mph75%30.07 "Hg15 mi
5:00 am39 °FPassing clouds.8 mph75%30.06 "Hg15 mi
4:00 am39 °FSunny.7 mph75%30.05 "Hg15 mi
3:00 am41 °FSunny.9 mph76%30.05 "Hg15 mi
2:00 am41 °FSunny.8 mph81%30.05 "Hg15 mi
1:00 am45 °FPassing clouds.7 mph71%30.04 "Hg15 mi
12:00 am46 °FPassing clouds.10 mph66%30.04 "Hg15 mi
11:00 pm
Mon, Jun 17
48 °FPassing clouds.9 mph62%30.03 "Hg15 mi
10:00 pm50 °FPassing clouds.14 mph54%30.02 "Hg15 mi
9:00 pm52 °FPassing clouds.14 mph50%30.02 "Hg15 mi
Weather by CustomWeather, © 2019

See weather overview